Weather in Yumatovo

Russia / Republic of Bashkortostan     54°37′09″N   55°39′19″E
temp.,
°C
wind,
m/s
gust,
m/s
humid.,
%
clouds,
%
prec.,
mm/h
press.,
hPa
HPBL,
m
26 february, fri
fri2623:00−26sse34939 0.0 102960
02:00−26sse48912 0.0 1028147
05:00−23s499543 0.0 1028305
08:00−24sse499593 0.0 1027242
11:00−21s599284 0.1 1025357
14:00−18s488978 0.0 1024450
17:00−15s389082 0.0 1023517
20:00−20s349472 0.0 102149
27 february, sat
sat2723:00−18sse5159236 0.0 1020383
02:00−17sse8158599 0.0 1016504
05:00−16sse81685100 0.0 1012628
08:00−13sse81494100 1.9 1008742
11:00−11sse81492100 3.9 1005812
14:00−9sse71293100 0.6 1003723
17:00−8se61094100 2.0 1002574
20:00−9ese5895100 0.8 1001267
28 february, sun
sun2823:00−9ese4696100 1.3 1001184
02:00−7e2397100 0.8 100091
05:00−7e229798 1.4 100043
08:00−7nne229799 0.4 100059
11:00−7n349696 0.8 1000160
14:00−7nnw569590 0.2 1001274
17:00−8nnw589491 0.4 1003334
20:00−10nw599494 0.1 1005258
1 march, mon
mon123:00−12nw499593 0.2 1008226
02:00−14wnw479597 0.3 1010228
05:00−16wnw469697 0.5 1013192
08:00−17nw4796100 0.1 1015201
11:00−17nw4596100 0.2 1017240
14:00−16nw4593100 0.0 1018311
17:00−16nw359397 0.1 1018314
20:00−20nw349874 0.0 102046
2 march, tue
tue223:00−22wnw229966 0.0 102120
02:00−23wsw229958 0.0 102020
05:00−24ssw239832 0.0 101920
08:00−24s34979 0.0 101764
11:00−19ssw6109339 0.0 1015272
14:00−15ssw71289100 0.0 1012426
17:00−13ssw71293100 0.4 1010563
20:00−13ssw61194100 0.6 1008615